Weather History for Kansas City International, MO

Change the Weather History Date:

Sunday, December 30, 2012

  Actual Average Record
Temperature  
Mean Temperature 32 °F 29 °F  
Max Temperature 44 °F 38 °F 68 °F (1965)
Min Temperature 19 °F 20 °F -8 °F (1983)
Degree Days  
Heating Degree Days 33 36  
Month to date heating degree days 854 1004  
Since 1 July heating degree days 1801 2006  
Cooling Degree Days 0 0  
Month to date cooling degree days 0 0  
Year to date cooling degree days 1839 1360  
Moisture  
Dew Point 18 °F    
Average Humidity 57    
Maximum Humidity 77    
Minimum Humidity 37    
Precipitation  
Precipitation 0.00 in 0.04 in 1.10 in (1906)
Month to date precipitation 1.23 1.50  
Year to date precipitation 22.17 38.83  
Snow  
Snow 0.00 in 0.20 in 6.70 in (1927)
Month to date snowfall 2.5 4.7  
Since 1 July snowfall 2.5 6.1  
Snow Depth 0.00 in    
Sea Level Pressure  
Sea Level Pressure 30.23 in    
Wind  
Wind Speed 15 mph (SSW)    
Max Wind Speed 29 mph    
Max Gust Speed 35 mph    
Visibility 10 miles    
Events      
T = Trace of Precipitation, MM = Missing Value Source: NWS Daily Summary

Daily Weather History Graph

Daily Weather History Graph

Search for Another Location

Airport:

Trip Planner

Search our weather history database for the weather conditions in past years. The results will help you decide how hot, cold, wet, or windy it might be!

Date:

Astronomy

Dec. 30, 2012 Rise Set
Actual Time 7:38 AM CST 5:05 PM CST
Civil Twilight 7:08 AM CST 5:35 PM CST
Nautical Twilight 6:34 AM CST 6:08 PM CST
Astronomical Twilight 6:02 AM CST 6:41 PM CST
Moon 7:36 PM CST (12/30) 8:48 AM CST (12/30)
Length of Visible Light 10h 26m
Length of Day
9h 26m
Waning Gibbous, 95% of the Moon is Illuminated
Dec 30
Waning Gibbous
Jan 4
Last Quarter
Jan 11
New
Jan 18
First Quarter
Jan 26
Full

Hourly Weather History & Observations

Time (CST) Temp. Windchill Dew Point Humidity Pressure Visibility Wind Dir Wind Speed Gust Speed Precip Events Conditions
12:53 AM 24.1 °F 15.2 °F 16.0 °F 71% 30.33 in 10.0 mi SSW 8.1 mph - N/A   Clear
1:53 AM 25.0 °F 18.1 °F 16.0 °F 69% 30.33 in 10.0 mi SSW 5.8 mph - N/A   Clear
2:53 AM 21.9 °F 12.5 °F 14.0 °F 72% 30.33 in 10.0 mi South 8.1 mph - N/A   Clear
3:53 AM 21.9 °F 12.5 °F 14.0 °F 72% 30.33 in 10.0 mi South 8.1 mph - N/A   Clear
4:53 AM 19.0 °F 9.0 °F 12.9 °F 77% 30.32 in 10.0 mi South 8.1 mph - N/A   Partly Cloudy
5:53 AM 23.0 °F 12.4 °F 15.1 °F 72% 30.32 in 10.0 mi South 10.4 mph - N/A   Clear
6:53 AM 23.0 °F 12.4 °F 15.1 °F 72% 30.32 in 10.0 mi SSW 10.4 mph - N/A   Clear
7:53 AM 21.9 °F 12.5 °F 15.1 °F 75% 30.32 in 10.0 mi South 8.1 mph - N/A   Mostly Cloudy
8:53 AM 28.0 °F 18.6 °F 19.0 °F 69% 30.32 in 10.0 mi South 10.4 mph - N/A   Mostly Cloudy
9:53 AM 34.0 °F 23.8 °F 19.9 °F 56% 30.32 in 10.0 mi SSW 16.1 mph - N/A   Mostly Cloudy
10:53 AM 39.0 °F 31.0 °F 19.9 °F 46% 30.30 in 10.0 mi SSW 13.8 mph - N/A   Mostly Cloudy
11:53 AM 41.0 °F 31.6 °F 19.9 °F 43% 30.25 in 10.0 mi SSW 20.7 mph 28.8 mph N/A   Overcast
12:53 PM 43.0 °F 33.5 °F 19.9 °F 40% 30.21 in 10.0 mi SSW 24.2 mph 31.1 mph N/A   Overcast
1:53 PM 44.1 °F 35.9 °F 19.0 °F 37% 30.17 in 10.0 mi SSW 19.6 mph 29.9 mph N/A   Overcast
2:53 PM 43.0 °F 34.0 °F 19.0 °F 38% 30.16 in 10.0 mi SSW 21.9 mph 26.5 mph N/A   Overcast
3:53 PM 43.0 °F 34.5 °F 19.9 °F 40% 30.15 in 10.0 mi South 19.6 mph - N/A   Overcast
4:53 PM 41.0 °F 31.9 °F 19.9 °F 43% 30.14 in 10.0 mi South 19.6 mph 29.9 mph N/A   Overcast
5:53 PM 39.9 °F 30.2 °F 21.0 °F 47% 30.13 in 10.0 mi South 20.7 mph 27.6 mph N/A   Overcast
6:53 PM 39.0 °F 30.3 °F 19.9 °F 46% 30.14 in 10.0 mi SSW 16.1 mph - N/A   Overcast
7:53 PM 39.0 °F 30.3 °F 19.9 °F 46% 30.14 in 10.0 mi SSW 16.1 mph - N/A   Overcast
8:53 PM 37.9 °F 28.2 °F 19.9 °F 48% 30.13 in 10.0 mi SSW 18.4 mph 24.2 mph N/A   Overcast
9:53 PM 37.0 °F 27.0 °F 21.0 °F 52% 30.12 in 10.0 mi SSW 18.4 mph - N/A   Overcast
10:53 PM 36.0 °F 26.7 °F 21.0 °F 55% 30.12 in 10.0 mi SSW 15.0 mph - N/A   Mostly Cloudy
11:53 PM 36.0 °F 25.6 °F 21.0 °F 55% 30.13 in 10.0 mi SSW 18.4 mph - N/A   Overcast